TAM3922 SBSP-SBRJ

Flight info

Callsign TAM3922
Flight time 0h 34m
Altitude 25000
Route NIBRU UZ171 KEVUN
Aircraft A319/M-SDE3FGHIRWY/LB1

Departure

Time 2026-05-06 04:39
Airport Congonhas–Deputado Freitas Nobre Airport (SBSP)

Arrival

Time 2026-05-06 05:14
Airport Santos Dumont Airport (SBRJ)
Time Latitude Longitude Altitude Speed Heading
2026-05-06 04:20 -23.62452 -46.66009 2600 ft 0 kts 237°
2026-05-06 04:32 -23.62448 -46.66002 2600 ft 3 kts 237°
2026-05-06 04:32 -23.62437 -46.65985 2600 ft 3 kts 253°
2026-05-06 04:32 -23.62437 -46.65965 2600 ft 3 kts 316°
2026-05-06 04:32 -23.62447 -46.65955 2601 ft 0 kts 327°
2026-05-06 04:34 -23.62443 -46.65958 2601 ft 2 kts 327°
2026-05-06 04:35 -23.62416 -46.65972 2600 ft 6 kts 352°
2026-05-06 04:35 -23.62374 -46.65979 2600 ft 6 kts 352°
2026-05-06 04:35 -23.62328 -46.65990 2600 ft 7 kts 338°
2026-05-06 04:35 -23.62282 -46.66021 2600 ft 8 kts 327°
2026-05-06 04:36 -23.62227 -46.66053 2600 ft 10 kts 333°
2026-05-06 04:36 -23.62165 -46.66093 2599 ft 11 kts 326°
2026-05-06 04:36 -23.62121 -46.66124 2593 ft 0 kts 327°
2026-05-06 04:37 -23.62119 -46.66126 2595 ft 2 kts 327°
2026-05-06 04:37 -23.62093 -46.66135 2597 ft 6 kts 351°
2026-05-06 04:37 -23.62046 -46.66114 2595 ft 10 kts 52°
2026-05-06 04:37 -23.62068 -46.66062 2596 ft 8 kts 144°
2026-05-06 04:38 -23.62082 -46.66052 2597 ft 0 kts 146°
2026-05-06 04:38 -23.62195 -46.65973 2599 ft 57 kts 147°
2026-05-06 04:39 -23.62745 -46.65592 2608 ft 127 kts 147°
2026-05-06 04:39 -23.63635 -46.64977 2784 ft 165 kts 148°
2026-05-06 04:39 -23.64630 -46.64289 3394 ft 177 kts 147°
2026-05-06 04:39 -23.65624 -46.63387 3765 ft 198 kts 126°
2026-05-06 04:40 -23.66369 -46.62018 4070 ft 223 kts 115°
2026-05-06 04:40 -23.67066 -46.60406 4535 ft 248 kts 114°
2026-05-06 04:40 -23.67815 -46.58621 5221 ft 265 kts 114°
2026-05-06 04:40 -23.68613 -46.56773 6151 ft 272 kts 115°
2026-05-06 04:41 -23.69447 -46.54911 7134 ft 275 kts 116°
2026-05-06 04:41 -23.70313 -46.53032 8110 ft 278 kts 117°
2026-05-06 04:41 -23.71177 -46.51125 9052 ft 284 kts 112°
2026-05-06 04:41 -23.71706 -46.49036 9999 ft 289 kts 98°
2026-05-06 04:42 -23.71757 -46.46817 10709 ft 303 kts 85°
2026-05-06 04:42 -23.71438 -46.44459 11211 ft 321 kts 82°
2026-05-06 04:42 -23.71083 -46.42035 11995 ft 328 kts 82°
2026-05-06 04:42 -23.70721 -46.39560 12831 ft 333 kts 82°
2026-05-06 04:43 -23.70356 -46.37052 13671 ft 337 kts 82°
2026-05-06 04:43 -23.69989 -46.34507 14438 ft 342 kts 82°
2026-05-06 04:43 -23.69625 -46.31962 15130 ft 346 kts 82°
2026-05-06 04:43 -23.69248 -46.29316 15837 ft 351 kts 82°
2026-05-06 04:44 -23.68874 -46.26695 16513 ft 356 kts 82°
2026-05-06 04:44 -23.68486 -46.23973 17195 ft 362 kts 82°
2026-05-06 04:44 -23.68102 -46.21277 17856 ft 366 kts 82°
2026-05-06 04:44 -23.67706 -46.18514 18513 ft 371 kts 82°
2026-05-06 04:45 -23.67303 -46.15713 19097 ft 376 kts 82°
2026-05-06 04:45 -23.67027 -46.13802 19501 ft 379 kts 82°
2026-05-06 04:45 -23.66483 -46.10018 20297 ft 384 kts 82°
2026-05-06 04:45 -23.66070 -46.07127 20919 ft 388 kts 82°
2026-05-06 04:46 -23.65650 -46.04204 21522 ft 392 kts 83°
2026-05-06 04:46 -23.65225 -46.01249 22126 ft 396 kts 82°
2026-05-06 04:46 -23.64796 -45.98267 22736 ft 400 kts 83°
2026-05-06 04:46 -23.64360 -45.95244 23339 ft 405 kts 83°
2026-05-06 04:47 -23.63920 -45.92206 23920 ft 409 kts 83°
2026-05-06 04:47 -23.63472 -45.89126 24431 ft 413 kts 83°
2026-05-06 04:47 -23.63019 -45.86015 24922 ft 418 kts 83°
2026-05-06 04:47 -23.62563 -45.82878 25125 ft 420 kts 83°
2026-05-06 04:48 -23.62108 -45.79744 25182 ft 420 kts 83°
2026-05-06 04:48 -23.61647 -45.76545 25192 ft 432 kts 83°
2026-05-06 04:48 -23.61178 -45.73295 25187 ft 435 kts 83°
2026-05-06 04:48 -23.60704 -45.70032 25188 ft 436 kts 83°
2026-05-06 04:49 -23.60227 -45.66769 25179 ft 437 kts 83°
2026-05-06 04:49 -23.59746 -45.63500 25180 ft 437 kts 83°
2026-05-06 04:49 -23.59265 -45.60233 25181 ft 437 kts 83°
2026-05-06 04:49 -23.58788 -45.56958 25184 ft 441 kts 83°
2026-05-06 04:50 -23.58301 -45.53595 25184 ft 457 kts 83°
2026-05-06 04:50 -23.57796 -45.50123 25182 ft 471 kts 83°
2026-05-06 04:50 -23.57264 -45.46554 25186 ft 484 kts 82°
2026-05-06 04:50 -23.56627 -45.42912 25187 ft 493 kts 80°
2026-05-06 04:51 -23.55876 -45.39253 25186 ft 496 kts 78°
2026-05-06 04:51 -23.55056 -45.35597 25183 ft 497 kts 77°
2026-05-06 04:51 -23.54211 -45.31947 25183 ft 497 kts 77°
2026-05-06 04:51 -23.53373 -45.28287 25185 ft 497 kts 78°
2026-05-06 04:52 -23.52556 -45.24631 25186 ft 497 kts 78°
2026-05-06 04:52 -23.51562 -45.21021 25190 ft 498 kts 73°
2026-05-06 04:52 -23.50447 -45.17446 25185 ft 498 kts 72°
2026-05-06 04:52 -23.49296 -45.13891 25186 ft 498 kts 71°
2026-05-06 04:53 -23.48120 -45.10341 25180 ft 498 kts 71°
2026-05-06 04:53 -23.46937 -45.06800 25177 ft 497 kts 71°
2026-05-06 04:53 -23.45759 -45.03260 25176 ft 497 kts 71°
2026-05-06 04:53 -23.44590 -44.99720 25171 ft 497 kts 71°
2026-05-06 04:54 -23.43433 -44.96175 25167 ft 497 kts 72°
2026-05-06 04:54 -23.42290 -44.92624 25167 ft 496 kts 72°
2026-05-06 04:54 -23.41161 -44.89072 25154 ft 496 kts 72°
2026-05-06 04:54 -23.40039 -44.85524 25164 ft 496 kts 72°
2026-05-06 04:55 -23.38911 -44.81967 25153 ft 496 kts 72°
2026-05-06 04:55 -23.37782 -44.78418 25157 ft 496 kts 72°
2026-05-06 04:55 -23.36659 -44.74919 25145 ft 497 kts 72°
2026-05-06 04:55 -23.35513 -44.71376 25153 ft 496 kts 72°
2026-05-06 04:56 -23.34363 -44.67835 25144 ft 496 kts 72°
2026-05-06 04:56 -23.33203 -44.64247 25144 ft 496 kts 72°
2026-05-06 04:56 -23.32075 -44.60750 25124 ft 497 kts 72°
2026-05-06 04:56 -23.30927 -44.57198 24301 ft 497 kts 71°
2026-05-06 04:57 -23.29786 -44.53661 23511 ft 490 kts 71°
2026-05-06 04:57 -23.28655 -44.50164 22766 ft 479 kts 71°
2026-05-06 04:57 -23.27573 -44.46822 21988 ft 472 kts 71°
2026-05-06 04:57 -23.26491 -44.43479 21191 ft 465 kts 71°
2026-05-06 04:58 -23.25420 -44.40170 20341 ft 463 kts 71°
2026-05-06 04:58 -23.24356 -44.36892 19617 ft 457 kts 71°
2026-05-06 04:58 -23.23305 -44.33653 18875 ft 452 kts 71°
2026-05-06 04:58 -23.22265 -44.30445 18019 ft 449 kts 71°
2026-05-06 04:59 -23.21235 -44.27270 17420 ft 440 kts 71°
2026-05-06 04:59 -23.20221 -44.24151 16607 ft 437 kts 71°
2026-05-06 04:59 -23.19215 -44.21069 16068 ft 428 kts 71°
2026-05-06 04:59 -23.18225 -44.18037 15517 ft 423 kts 71°
2026-05-06 05:00 -23.17247 -44.15049 14986 ft 417 kts 71°
2026-05-06 05:00 -23.16281 -44.12101 14433 ft 412 kts 71°
2026-05-06 05:00 -23.15326 -44.09183 13865 ft 408 kts 72°
2026-05-06 05:00 -23.14382 -44.06298 13099 ft 405 kts 71°
2026-05-06 05:01 -23.13436 -44.03404 12234 ft 406 kts 71°
2026-05-06 05:01 -23.12496 -44.00524 11515 ft 402 kts 71°
2026-05-06 05:01 -23.11565 -43.97680 10818 ft 397 kts 71°
2026-05-06 05:01 -23.10644 -43.94869 10113 ft 392 kts 71°
2026-05-06 05:02 -23.09734 -43.92096 9310 ft 388 kts 71°
2026-05-06 05:02 -23.08834 -43.89354 8506 ft 383 kts 71°
2026-05-06 05:02 -23.07949 -43.86661 8004 ft 370 kts 71°
2026-05-06 05:02 -23.07110 -43.84112 7882 ft 347 kts 71°
2026-05-06 05:03 -23.06320 -43.81716 7771 ft 328 kts 71°
2026-05-06 05:03 -23.05571 -43.79446 7646 ft 310 kts 71°
2026-05-06 05:03 -23.04863 -43.77300 7529 ft 294 kts 71°
2026-05-06 05:03 -23.04188 -43.75257 7412 ft 282 kts 71°
2026-05-06 05:04 -23.03532 -43.73268 7295 ft 279 kts 71°
2026-05-06 05:04 -23.02882 -43.71288 7177 ft 278 kts 71°
2026-05-06 05:04 -23.02233 -43.69314 7062 ft 277 kts 71°
2026-05-06 05:04 -23.01576 -43.67351 6945 ft 277 kts 71°
2026-05-06 05:05 -23.00915 -43.65398 7015 ft 277 kts 71°
2026-05-06 05:05 -23.00249 -43.63436 7040 ft 277 kts 71°
2026-05-06 05:05 -22.99488 -43.61508 6967 ft 279 kts 65°
2026-05-06 05:05 -22.98650 -43.59620 6788 ft 277 kts 65°
2026-05-06 05:06 -22.97818 -43.57738 6620 ft 277 kts 65°
2026-05-06 05:06 -22.96990 -43.55854 6452 ft 276 kts 65°
2026-05-06 05:06 -22.96167 -43.53975 6252 ft 276 kts 65°
2026-05-06 05:06 -22.95345 -43.52100 6094 ft 275 kts 65°
2026-05-06 05:07 -22.94523 -43.50230 5916 ft 275 kts 65°
2026-05-06 05:07 -22.93718 -43.48354 5663 ft 273 kts 66°
2026-05-06 05:07 -22.92928 -43.46486 5421 ft 272 kts 66°
2026-05-06 05:07 -22.92153 -43.44643 5182 ft 271 kts 66°
2026-05-06 05:08 -22.91370 -43.42781 4945 ft 270 kts 66°
2026-05-06 05:08 -22.90604 -43.40961 4706 ft 260 kts 66°
2026-05-06 05:08 -22.89865 -43.39209 4480 ft 250 kts 66°
2026-05-06 05:08 -22.89151 -43.37525 4259 ft 242 kts 66°
2026-05-06 05:09 -22.88525 -43.35873 4055 ft 234 kts 76°
2026-05-06 05:09 -22.88375 -43.34151 3799 ft 229 kts 95°
2026-05-06 05:09 -22.88548 -43.32443 3514 ft 227 kts 96°
2026-05-06 05:09 -22.88710 -43.30745 3210 ft 224 kts 96°
2026-05-06 05:10 -22.88863 -43.29101 2939 ft 215 kts 95°
2026-05-06 05:10 -22.89009 -43.27523 2690 ft 206 kts 95°
2026-05-06 05:10 -22.89306 -43.26055 2446 ft 196 kts 112°
2026-05-06 05:10 -22.89893 -43.24752 2179 ft 189 kts 115°
2026-05-06 05:11 -22.90460 -43.23486 1928 ft 183 kts 115°
2026-05-06 05:11 -22.90995 -43.22290 1699 ft 168 kts 115°
2026-05-06 05:11 -22.91535 -43.21266 1543 ft 148 kts 127°
2026-05-06 05:11 -22.92293 -43.20561 1394 ft 141 kts 143°
2026-05-06 05:12 -22.93093 -43.19971 1270 ft 137 kts 142°
2026-05-06 05:12 -22.93871 -43.19386 1131 ft 135 kts 141°
2026-05-06 05:12 -22.94524 -43.18676 951 ft 132 kts 124°
2026-05-06 05:12 -22.94841 -43.17768 805 ft 128 kts 92°
2026-05-06 05:13 -22.94661 -43.16845 686 ft 126 kts 60°
2026-05-06 05:13 -22.94000 -43.16237 524 ft 129 kts 19°
2026-05-06 05:13 -22.93105 -43.16174 304 ft 129 kts 359°
2026-05-06 05:13 -22.92207 -43.16212 139 ft 129 kts 357°
2026-05-06 05:14 -22.91325 -43.16265 23 ft 116 kts 357°
2026-05-06 05:14 -22.90742 -43.16303 28 ft 42 kts 356°
2026-05-06 05:14 -22.90584 -43.16313 27 ft 33 kts 356°
2026-05-06 05:14 -22.90490 -43.16370 24 ft 11 kts 272°
2026-05-06 05:15 -22.90494 -43.16430 23 ft 5 kts 265°
2026-05-06 05:15 -22.90497 -43.16477 23 ft 6 kts 266°
2026-05-06 05:15 -22.90499 -43.16530 22 ft 8 kts 267°
2026-05-06 05:15 -22.90541 -43.16556 22 ft 8 kts 181°
2026-05-06 05:16 -22.90602 -43.16552 22 ft 9 kts 176°
2026-05-06 05:16 -22.90672 -43.16548 22 ft 11 kts 177°
2026-05-06 05:16 -22.90752 -43.16544 22 ft 12 kts 178°
2026-05-06 05:16 -22.90841 -43.16550 22 ft 13 kts 183°
2026-05-06 05:17 -22.90939 -43.16544 24 ft 15 kts 176°
2026-05-06 05:17 -22.91046 -43.16537 24 ft 16 kts 175°
2026-05-06 05:17 -22.91159 -43.16517 23 ft 16 kts 174°
2026-05-06 05:17 -22.91245 -43.16512 22 ft 9 kts 177°
2026-05-06 05:18 -22.91259 -43.16511 24 ft 0 kts 176°
2026-05-06 05:19 -22.91281 -43.16509 22 ft 5 kts 176°
2026-05-06 05:19 -22.91314 -43.16518 22 ft 5 kts 234°
2026-05-06 05:19 -22.91318 -43.16553 22 ft 3 kts 268°
2026-05-06 05:20 -22.91319 -43.16578 22 ft 1 kts 268°
2026-05-06 05:20 -22.91319 -43.16579 22 ft 0 kts 268°